Tracking 30922 objects as of 2-Jul-2025
HD Live streaming from Space Station
objects crossing your sky now

STARLINK-4000

Track STARLINK-4000 now!
10-day predictions
STARLINK-4000 is classified as:


NORAD ID: 52605
Int'l Code: 2022-052H
Perigee: 546.0 km
Apogee: 547.8 km
Inclination: 53.2 °
Period: 95.4 minutes
Semi major axis: 6917 km
RCS: Unknown
Launch date: May 14, 2022
Source: United States (US)
Launch site: AIR FORCE EASTERN TEST RANGE (AFETR)
Your satellite tracking list
Your tracking list is empty




NASA's NSSDC Master Catalog

Two Line Element Set (TLE):
1 52605U 22052H   25182.68552630  .00000123  00000-0  25844-4 0  9995
2 52605  53.2187 330.6995 0001342  93.6196 266.4949 15.08838080172893
Source of the keplerian elements: AFSPC